カタログに戻る

STARLINK-11255

運用中通信VLEO
NORAD 60730·PAYLOAD·🇺🇸 United States

打ち上げ Aug 28, 2024 から Cape Canaveral Space Force Station

Loading…

次のパス (今後24時間)

TLE

最新Source: CelesTrak SupGP

元期: Sep 14, 2026, 20:56 UTC

1 60730C 24152L   26257.87270833  .00035804  00000+0  29500-3 0  2575
2 60730  53.1573 263.3985 0001318  95.5712 199.3183 15.69686055    16

AllMySatでSTARLINK-11255をリアルタイム追跡

Download on the App Store